Vernal, UT

10:01 PM MST on November 16, 2019 (GMT -0700)
Vernal

Weather History for KVEL - June, 2019

Change the Weather History Date:

Saturday, June 1, 2019

  Actual Average Record
Temperature  
Mean Temperature 63 °F 61 °F  
Max Temperature 78 °F 75 °F 92 °F (1977)
Min Temperature 48 °F 47 °F 27 °F (1953)
Degree Days  
Heating Degree Days 2 5  
Month to date heating degree days 2 5  
Since 1 June heating degree days 2 5  
Since 1 July heating degree days 7483 7153  
Cooling Degree Days 0 1  
Month to date cooling degree days 0 1  
Year to date cooling degree days 1 10  
Since 1 June cooling degree days 0 1  
Growing Degree Days 13 (Base 50)    
Moisture  
Dew Point 41 °F    
Average Humidity 46    
Maximum Humidity 71    
Minimum Humidity 20    
Precipitation  
Precipitation 0.00 in 0.03 in 1.36 in (1943)
Month to date precipitation 0.00 0.03  
Year to date precipitation 7.42 3.44  
Sea Level Pressure  
Sea Level Pressure 29.88 in    
Wind  
Wind Speed 4 mph ()    
Max Wind Speed 13 mph    
Max Gust Speed 17 mph    
Visibility 10.0 miles    
Events      
T = Trace of Precipitation, MM = Missing Value Source: Averaged Metar Reports

Daily Weather History Graph

Daily Weather History Graph

Search for Another Location

Airport or City:

Astronomy

Jun. 01, 2019 Rise Set
Actual Time 5:50 AM MDT 8:42 PM MDT
Civil Twilight 5:17 AM MDT 9:14 PM MDT
Nautical Twilight 4:36 AM MDT 9:55 PM MDT
Astronomical Twilight 3:49 AM MDT 10:42 PM MDT
Moon 4:57 AM MDT (6/1) 6:58 PM MDT (6/1)
Length of Visible Light 15h 57m
Length of Day
14h 52m
Waning Crescent, 3% of the Moon is Illuminated
Jun 1
Waning Crescent
Jun 3
New
Jun 10
First Quarter
Jun 17
Full
Jun 25
Last Quarter

Hourly Weather History & Observations

Time (MDT) Temp. Dew Point Humidity Pressure Visibility Wind Dir Wind Speed Gust Speed Precip Events Conditions
12:53 AM 55.0 °F 41.0 °F 59% 29.96 in 10.0 mi West 3.5 mph - N/A   Clear
1:53 AM 54.0 °F 39.9 °F 59% 29.96 in 10.0 mi NNW 8.1 mph - N/A   Scattered Clouds
2:53 AM 55.0 °F 39.0 °F 55% 29.93 in 10.0 mi NW 8.1 mph - N/A   Clear
3:53 AM 52.0 °F 39.9 °F 63% 29.94 in 10.0 mi Calm Calm - N/A   Clear
4:53 AM 50.0 °F 41.0 °F 71% 29.94 in 10.0 mi Calm Calm - N/A   Partly Cloudy
5:53 AM 52.0 °F 41.0 °F 66% 29.95 in 10.0 mi WNW 5.8 mph - N/A   Mostly Cloudy
6:53 AM 55.0 °F 43.0 °F 64% 29.94 in 10.0 mi WSW 4.6 mph - N/A   Partly Cloudy
7:53 AM 59.0 °F 42.1 °F 53% 29.94 in 10.0 mi NNW 3.5 mph - N/A   Mostly Cloudy
8:53 AM 62.1 °F 44.1 °F 52% 29.96 in 10.0 mi ENE 4.6 mph - N/A   Mostly Cloudy
9:53 AM 61.0 °F 46.9 °F 60% 29.97 in 10.0 mi South 6.9 mph - N/A   Clear
10:53 AM 64.0 °F 46.9 °F 54% 29.95 in 10.0 mi SW 3.5 mph - N/A   Partly Cloudy
11:53 AM 70.0 °F 46.0 °F 42% 29.92 in 10.0 mi East 4.6 mph - N/A   Clear
12:53 PM 73.0 °F 45.0 °F 37% 29.89 in 10.0 mi Variable 4.6 mph - N/A   Clear
1:53 PM 73.0 °F 45.0 °F 37% 29.87 in 10.0 mi Variable 5.8 mph - N/A   Clear
2:53 PM 75.9 °F 39.9 °F 27% 29.84 in 10.0 mi West 6.9 mph - N/A   Clear
3:53 PM 78.1 °F 39.9 °F 25% 29.82 in 10.0 mi Calm Calm - N/A   Clear
4:53 PM 77.0 °F 37.9 °F 24% 29.80 in 10.0 mi SW 9.2 mph - N/A   Clear
5:53 PM 78.1 °F 35.1 °F 21% 29.78 in 10.0 mi NW 3.5 mph - N/A   Clear
6:53 PM 78.1 °F 35.1 °F 21% 29.75 in 10.0 mi NNW 4.6 mph - N/A   Clear
7:53 PM 73.9 °F 30.0 °F 20% 29.75 in 10.0 mi North 4.6 mph - N/A   Clear
8:53 PM 64.0 °F 39.0 °F 40% 29.78 in 10.0 mi NW 5.8 mph - N/A   Clear
9:53 PM 63.0 °F 39.0 °F 41% 29.81 in 10.0 mi NNW 8.1 mph - N/A   Clear
10:53 PM 55.9 °F 39.9 °F 55% 29.84 in 10.0 mi Calm Calm - N/A   Clear
11:53 PM 53.1 °F 41.0 °F 64% 29.83 in 10.0 mi WNW 4.6 mph - N/A   Clear